Home > Weather > San Juan > Past weeks

Flag for Puerto Rico Weather for the Past 2 Weeks in San Juan, Puerto Rico

Now
85 °F

Scattered clouds.


Feels Like: 91 °F
Forecast: N/A
Wind: 8 mph from Southeast

Location: Luis Munoz Marin

Current Time: May 5, 2016 at 7:01:45 PM

Latest Report: May 5, 2016 at 5:56 PM


Visibility: 10 mi

Pressure: 29.88 "Hg

Humidity: 65%

Dew Point: 72 °F

Location of San JuanLocation

Historic Weather in San Juan — Graph

°F

San Juan Temperature Yesterday

Maximum temperature yesterday: 87 °F (at 4:56 PM)
Minimum temperature yesterday: 76 °F (at 2:56 AM)
Average temperature yesterday: 81 °F

High & Low Weather Summary for the Past Weeks

 TemperatureHumidityPressure
High91 °F (Apr 24, 12:56 PM)100% (Apr 22, 7:00 PM)30.08 "Hg (Apr 22, 7:00 PM)
Low73 °F (May 1, 5:56 AM)50% (Apr 24, 12:56 PM)29.82 "Hg (Apr 26, 4:56 PM)
Average80 °F82%29.94 "Hg
* Reported Apr 20 5:56 PM — May 5 5:56 PM, San Juan, Weather by CustomWeather, © 2016

Note: Actual official high and low records may vary slightly from our data, if they occured in-between our weather recording intervals... More about our weather records

Advertising

San Juan Weather History for the Previous 24 Hours

Scroll right to see more
 ConditionsComfort  
Time TempWeatherWind HumidityBarometerVisibility
5:56 PM
Thu, May 5
85 °FScattered clouds.8 mph65%29.88 "Hg10 mi
4:56 PM87 °FScattered clouds.12 mph61%29.87 "Hg10 mi
3:56 PM87 °FScattered clouds.13 mph59%29.87 "Hg10 mi
2:56 PM89 °FScattered clouds.10 mph56%29.88 "Hg10 mi
1:56 PM89 °FScattered clouds.8 mph58%29.91 "Hg10 mi
12:56 PM88 °FScattered clouds.8 mph57%29.93 "Hg10 mi
11:56 AM87 °FScattered clouds.13 mph57%29.96 "Hg10 mi
10:56 AM88 °FScattered clouds.10 mph55%29.97 "Hg10 mi
9:56 AM85 °FScattered clouds.6 mph65%29.97 "Hg10 mi
8:56 AM83 °FScattered clouds.5 mph72%29.97 "Hg10 mi
7:56 AM80 °FScattered clouds.No wind81%29.96 "Hg10 mi
6:56 AM78 °FScattered clouds.3 mph90%29.95 "Hg10 mi
5:56 AM77 °FPassing clouds.5 mph90%29.93 "Hg10 mi
4:56 AM77 °FPassing clouds.5 mph90%29.92 "Hg10 mi
3:56 AM77 °FPassing clouds.3 mph90%29.93 "Hg10 mi
2:56 AM77 °FPassing clouds.No wind90%29.93 "Hg10 mi
1:56 AM78 °FPassing clouds.No wind87%29.94 "Hg10 mi
12:56 AM78 °FPassing clouds.3 mph87%29.97 "Hg10 mi
11:56 PM
Wed, May 4
79 °FPassing clouds.No wind84%29.98 "Hg10 mi
10:56 PM79 °FPassing clouds.5 mph88%30.00 "Hg10 mi
9:56 PM79 °FPassing clouds.8 mph88%29.98 "Hg10 mi
8:56 PM79 °FPassing clouds.7 mph90%29.97 "Hg10 mi
7:56 PM80 °FPassing clouds.7 mph85%29.94 "Hg10 mi
Weather by CustomWeather, © 2016

See weather overviewHow to use our weather pages